STARLINK-5090 (56137 NORAD) Tracking and Keplerian Element Data

This shows tracking and keplerian element data for the satellite.

Feedback or suggestion? Click here.




ElementValue
Catalog56137
NameSTARLINK-5090
Epoch Orbit656
Epoch Day127.25001157
Epoch Year2023
RAAN33.6748
Inclination43.002
Eccentricity0.0001475
Argument of Perigee269.831
Mean Anonmoly357.1285
Mean Motion15.48871179
Decay Rate0.00071151
L11 56137U 23046AX 23127.25001157 .00071151 00000+0 12827-2 0 9999
L22 56137 43.0020 33.6748 0001475 269.8310 357.1285 15.48871179 6569



Live tracking and technical data element details for STARLINK-5090 (NORAD 56137). STARLINK-5090 can be tracked NOW for your location showing map with azimuth and elevation plus other details from your city location.







IsCatalogInMostPopularTable: catalog: 56137, numindb: 3
Update: records affected: 1



GetName: 56137 STARLINK-5090

Hit Count: updated at: Mon, 05 Jun 2023 00:53:29 GMT